EW5004 Weather Reports


Display with metric or nautical units.
time (UTC)temp
F
wind
direction
speed
MPH
gust
MPH
rain 1hr
in
rain 24hr
in
rain mn
in
humidity
%
barometer
mb
20260508141533 49 263 1.0 3.0 0.00 0.00 0.00 37 1012.6
20260508140024 48 271 1.0 3.0 0.00 0.00 0.00 31 1012.5
20260508134519 47 188 1.0 4.0 0.00 0.00 0.00 24 1012.6
20260508133019 46 161 0.0 3.0 0.00 0.00 0.00 24 1012.6
20260508131512 46 149 1.0 4.0 0.00 0.00 0.00 19 1012.6
20260508130011 45 140 0.0 6.0 0.00 0.00 0.00 18 1012.5
20260508124501 45 101 2.0 5.0 0.00 0.00 0.00 17 1012.5
20260508123058 46 77 0.0 5.0 0.00 0.00 0.00 21 1012.5
20260508121554 46 50 1.0 6.0 0.00 0.00 0.00 25 1012.4
20260508120050 47 5 1.0 5.0 0.00 0.00 0.00 30 1012.1
20260508114544 47 283 1.0 7.0 0.00 0.00 0.00 32 1011.7
20260508113041 47 302 1.0 6.0 0.00 0.00 0.00 31 1011.5
20260508111538 46 273 3.0 5.0 0.00 0.00 0.00 32 1011.4
20260508110033 45 296 2.0 5.0 0.00 0.00 0.00 29 1011.3
20260508104527 45 288 1.0 6.0 0.00 0.00 0.00 32 1011.3
20260508103027 45 281 0.0 4.0 0.00 0.00 0.00 34 1011.3
20260508101518 44 292 2.0 4.0 0.00 0.00 0.00 36 1011.2
20260508100014 44 290 2.0 6.0 0.00 0.00 0.00 38 1011.1
20260508094509 44 294 2.0 5.0 0.00 0.00 0.00 39 1011.3
20260508093009 44 286 1.0 6.0 0.00 0.00 0.00 40 1011.3
20260508091501 45 286 3.0 5.0 0.00 0.00 0.00 40 1011.2
20260508090114 44 279 3.0 8.0 0.00 0.00 0.00 34 1011.0
20260508084552 43 275 2.0 4.0 0.00 0.00 0.00 19 1011.1
20260508083048 42 256 1.0 4.0 0.00 0.00 0.00 10 1011.1
20260508081559 41 248 1.0 4.0 0.00 0.00 0.00 6 1011.1
20260508080040 41 230 1.0 3.0 0.00 0.00 0.00 3 1011.2
20260508074533 40 228 0.0 4.0 0.00 0.00 0.00 100 1011.3
20260508073029 40 227 0.0 0.0 0.00 0.00 0.00 100 1011.4
20260508071527 40 227 0.0 0.0 0.00 0.00 0.00 5 1011.5
20260508070021 41 227 1.0 2.0 0.00 0.00 0.00 7 1011.7
20260508064516 42 227 0.0 1.0 0.00 0.00 0.00 7 1011.7
20260508063012 42 228 1.0 2.0 0.00 0.00 0.00 11 1011.9
20260508061508 42 229 0.0 3.0 0.00 0.00 0.00 12 1012.0
20260508060004 42 279 0.0 2.0 0.00 0.00 0.00 21 1012.1
20260508054559 42 279 1.0 2.0 0.00 0.00 0.00 22 1012.2
20260508053059 42 281 0.0 2.0 0.00 0.00 0.00 27 1012.4
20260508051607 41 281 0.0 3.0 0.00 0.00 0.00 9 1012.3
20260508050046 39 284 0.0 2.0 0.00 0.00 0.00 100 1012.3
20260508044548 38 286 0.0 3.0 0.00 0.00 0.00 100 1012.2
20260508043037 39 319 0.0 0.0 0.00 0.00 0.00 100 1012.2
20260508041533 38 319 0.0 2.0 0.00 0.00 0.00 100 1012.2
20260508040028 38 355 0.0 2.0 0.00 0.00 0.00 100 1012.2
20260508034537 38 355 0.0 0.0 0.00 0.00 0.00 100 1012.3
20260508033020 39 355 0.0 0.0 0.00 0.00 0.00 100 1012.2
20260508031515 40 355 0.0 1.0 0.00 0.00 0.00 100 1012.3
20260508030011 40 35 0.0 1.0 0.00 0.00 0.00 100 1012.3
20260508024516 41 35 0.0 1.0 0.00 0.00 0.00 2 1012.4
20260508023003 42 36 0.0 1.0 0.00 0.00 0.00 7 1012.4
20260508021606 43 36 0.0 0.0 0.00 0.00 0.00 15 1012.4
20260508020057 45 36 0.0 1.0 0.00 0.00 0.00 24 1012.3
20260508014553 46 36 0.0 1.0 0.00 0.00 0.00 35 1012.2
20260508013044 47 36 0.0 1.0 0.00 0.00 0.00 42 1012.0
20260508011540 48 39 3.0 6.0 0.00 0.00 0.00 49 1012.0
20260508010048 49 30 2.0 4.0 0.00 0.00 0.00 58 1011.7
20260508004543 49 338 1.0 6.0 0.00 0.00 0.00 57 1011.5
20260508003026 49 355 2.0 6.0 0.00 0.00 0.00 57 1011.4
20260508001532 50 5 3.0 7.0 0.00 0.00 0.00 55 1011.3
20260508000018 50 295 2.0 7.0 0.00 0.00 0.00 53 1011.2
20260507234514 50 360 2.0 10.0 0.00 0.00 0.00 54 1011.1
20260507233010 51 329 2.0 8.0 0.00 0.00 0.00 57 1011.2
20260507231505 51 69 6.0 14.0 0.00 0.00 0.00 58 1011.3
20260507230112 52 11 5.0 11.0 0.00 0.00 0.00 55 1011.3
20260507224559 53 19 3.0 16.0 0.00 0.00 0.00 51 1011.1
20260507223052 53 339 6.0 12.0 0.00 0.00 0.00 52 1011.1
20260507221548 52 327 6.0 13.0 0.00 0.00 0.00 50 1011.1
20260507220047 54 327 3.0 15.0 0.00 0.00 0.00 46 1011.0
20260507214538 53 296 4.0 13.0 0.00 0.00 0.00 48 1010.9
20260507213034 54 326 7.0 18.0 0.00 0.00 0.00 45 1010.8
20260507211530 54 317 5.0 13.0 0.00 0.00 0.00 45 1010.8
20260507210026 53 332 7.0 14.0 0.00 0.00 0.00 47 1010.7
20260507204521 53 74 8.0 16.0 0.00 0.00 0.00 46 1010.8
20260507203031 54 294 7.0 16.0 0.00 0.00 0.00 43 1010.7
20260507201515 54 323 6.0 15.0 0.00 0.00 0.00 44 1011.0
20260507200007 54 59 7.0 15.0 0.00 0.00 0.00 45 1011.1
20260507194503 55 360 4.0 13.0 0.00 0.00 0.00 45 1011.1
20260507193103 54 324 6.0 14.0 0.00 0.00 0.00 46 1011.2
20260507191554 55 58 3.0 9.0 0.00 0.00 0.00 47 1011.3
20260507190056 54 316 4.0 13.0 0.00 0.00 0.00 47 1011.3
20260507184549 54 360 4.0 11.0 0.00 0.00 0.00 49 1011.4
20260507183041 54 329 6.0 11.0 0.00 0.00 0.00 49 1011.4
20260507181537 53 55 6.0 15.0 0.00 0.00 0.00 51 1011.4
20260507180037 53 355 6.0 12.0 0.00 0.00 0.00 53 1011.5
20260507174539 53 280 7.0 14.0 0.00 0.00 0.00 53 1011.6
20260507173047 54 5 6.0 11.0 0.00 0.00 0.00 54 1011.7
20260507171525 54 108 4.0 10.0 0.00 0.00 0.00 56 1011.7
20260507170015 53 334 6.0 12.0 0.00 0.00 0.00 53 1011.7
20260507164513 53 78 7.0 13.0 0.00 0.00 0.00 53 1011.6
20260507163005 54 30 6.0 14.0 0.00 0.00 0.00 48 1011.6
20260507161501 54 24 6.0 17.0 0.00 0.00 0.00 50 1011.7
20260507154554 55 42 4.0 10.0 0.00 0.00 0.00 52 1011.9
20260507153054 54 310 3.0 10.0 0.00 0.00 0.00 54 1011.9
20260507151544 54 360 1.0 11.0 0.00 0.00 0.00 55 1012.0
20260507150043 54 299 3.0 8.0 0.00 0.00 0.00 56 1012.1
20260507144535 53 321 0.0 6.0 0.00 0.00 0.00 55 1012.1
20260507143035 52 53 2.0 8.0 0.00 0.00 0.00 52 1012.1